www.pogodaiklimat.ru

Погода и климат >> Архив погоды >> Аргентина >> Рио-Куарто


ПОГОДА в Рио-Куарто

  • Прогноз погоды в Рио-Куарто
  • Монитор погоды в Рио-Куарто

АРХИВ ПОГОДЫ в Рио-Куарто

Время (UTC), дата Ветер
(напр.,м/с)
 
Видим.   Явления Облачность Т
(С)
Тd
(С)
f
(%)
Тe
(С)
Тes
(С)
Комфортность P
(гПа)
Po
(гПа)
Тmin
(С)
Tmax
(С)
R
(мм)
R24
(мм)
S
(см)
21 19.03 ЮЗ 3 15 км 9/9 600 м
[Sc]
+14.8 +11.4 80 +14 +14 1020.4 971.0
00 20.03 З 3 12 км слаб. дождь туман 9/5 1200 м
[Cb cap As op]
+14.0 +12.4 90 +13 +13 1021.9 972.2 +12.8 +15.2 0.1
03 20.03 З 3 15 км {дождь} ясно +11.6 +11.2 97 +10 +10 1024.1 974.1
06 20.03 ЮЗ 3 15 км {дождь} ясно +10.0 +9.4 96 +8 +8 1024.6 974.7 0.0
09 20.03 ЮЗ 3 15 км ясно +9.3 +8.5 95 +7 +7 1024.8 974.6
12 20.03 З 3 15 км 1/1 120 м
[St]
+9.0 +7.8 92 +6 +8 1025.8 975.6 +7.2 +14.0 0.1
15 20.03 Ю 4 15 км 10/3 600 м
[Sc]
+13.0 +7.9 71 +11 +14 1026.1 976.0
18 20.03 Ю 6 15 км 4/4 750 м
[Cu hum]
+17.0 +7.6 54 +16 +19 1024.2 974.4
21 20.03 ЮВ 5 15 км 5/1 750 м
[Cu hum Ac trans]
+17.4 +6.7 49 +17 +17 1023.0 973.2
00 21.03 СВ 3 15 км 5/0
[Ac As]
+13.9 +8.9 72 +13 +13 1024.5 974.2 +9.0 +18.2
03 21.03 СВ 4 15 км ясно +12.0 +8.3 78 +10 +10 1024.6 974.6
06 21.03 С 3 15 км 3/0
[Ci fib]
+10.3 +7.0 80 +8 +8 1023.4 973.6
09 21.03 С 4 15 км 6/0
[Ac As Ci fib]
+8.5 +7.1 91 +5 +5 1021.8 972.0
12 21.03 С 4 15 км 9/0
[Ac As Cs]
+11.6 +8.5 81 +9 +10 1021.6 971.8 +7.2 +14.0
15 21.03 С 9 15 км 4/0
[Ac As Cs]
+18.1 +8.6 54 +17 +18 1020.5 971.1
18 21.03 С 8 15 км 4/1 600 м
[Cu hum Ac trans]
+20.6 +9.3 48 +22 +23 комфорт 1017.8 968.6
21 21.03 С 9 15 км 8/1 600 м
[Cu hum Ac trans Cs]
+18.9 +9.6 55 +19 +19 1016.2 966.8
00 22.03 С 6 15 км 1/0
[Ac As Cs]
+14.5 +10.4 76 +13 +13 1016.4 966.9 +11.6 +21.0
03 22.03 С 5 15 км 6/0
[Cs]
+13.9 +10.6 80 +12 +12 1016.8 967.8
06 22.03 С 3 15 км 4/0
[Cs]
+13.2 +10.4 83 +12 +12 1016.2 967.3
09 22.03 С 3 15 км 9/0
[Ac trans]
+11.6 +10.7 94 +10 +10 1016.4 967.3
12 22.03 С 5 15 км ясно +14.0 +10.5 79 +12 +14 1018.0 968.6 +11.2 +14.0
15 22.03 С 7 15 км 1/0
[Ci fib]
+20.8 +11.1 54 +22 +26 комфорт 1017.7 968.8
18 22.03 С 5 15 км 4/4 1200 м
[Cu hum Ci fib]
+23.2 +11.9 49 +26 +29 жарко 1015.9 967.3
21 22.03 СВ 6 15 км 3/3 1200 м
[Cu hum]
+22.6 +11.8 50 +25 +25 комфорт 1014.9 966.1
00 23.03 С 4 15 км ясно +17.4 +13.1 76 +17 +17 1015.7 966.6 +14.0 +23.6
03 23.03 С 3 15 км ясно +14.1 +12.5 90 +13 +13 1015.9 967.1
06 23.03 С 3 15 км ясно +14.3 +12.7 90 +13 +13 1014.7 966.2
09 23.03 СЗ 3 15 км ясно +13.1 +12.0 93 +12 +12 1013.7 965.1
12 23.03 С 3 15 км 6/0
[Cs]
+15.0 +12.0 82 +14 +17 1014.3 965.4 +12.0 +17.4
15 23.03 С 5 15 км 4/0
[Cs]
+23.4 +13.2 53 +27 +33 душно 1013.3 964.9
18 23.03 С 5 15 км 3/0
[Cs]
+26.2 +13.9 47 +28 +35 жарко 1011.1 963.0
21 23.03 СВ 5 15 км 1/0
[Ci fib]
+26.8 +14.7 47 +29 +30 жарко 1010.4 962.2
00 24.03 штиль 0 15 км ясно +20.6 +15.6 73 +23 +23 комфорт 1012.8 964.2 +15.0 +27.0
03 24.03 З 1 15 км ясно +17.9 +14.5 80 +19 +19 1014.5 966.2
06 24.03 З 4 15 км ясно +15.9 +14.4 91 +15 +15 1015.7 967.4
09 24.03 ЮЗ 3 15 км ясно +14.9 +14.0 94 +14 +14 1019.2 970.8
12 24.03 З 5 15 км ясно +15.0 +9.2 68 +14 +15 1022.2 973.2 +11.2 +20.6
15 24.03 ЮВ 8 15 км ясно +18.6 +10.9 61 +18 +21 1022.2 973.3
18 24.03 Ю 7 15 км ясно +21.0 +10.1 50 +23 +26 комфорт 1020.1 971.3
21 24.03 Ю 6 15 км ясно +21.6 +8.6 43 +23 +23 комфорт 1018.2 969.4
00 25.03 Ю 3 15 км 3/0
[Ac As]
+19.0 +9.7 55 +20 +20 1019.3 970.2 +15.0 +22.4
03 25.03 ЮВ 1 15 км 9/0
[Ac As]
+15.3 +8.9 66 +16 +16 1020.6 971.4
06 25.03 ЮЗ 2 15 км 4/0
[Ac As]
+11.3 +9.2 87 +10 +10 1019.9 970.6
09 25.03 С 1 15 км 5/0
[Ac As]
+11.2 +8.2 82 +11 +11 1019.6 970.5
12 25.03 В 4 15 км 8/1 750 м
[Sc Ac As]
+13.0 +9.0 77 +11 +12 1021.4 972.1 +10.8 +19.0
15 25.03 СВ 4 15 км 9/0
[Ac As]
+16.6 +9.1 61 +16 +19 1021.5 972.2
18 25.03 ЮВ 3 15 км 10/0
[Ac As]
+17.6 +8.8 56 +18 +21 1020.5 971.0
21 25.03 ЮВ 2 15 км слаб. дождь 10/0 1200 м
[As op]
+14.9 +10.5 75 +15 +15 1021.0 971.3
00 26.03 штиль 0 15 км {дождь} 6/0
[Ac As]
+13.6 +11.2 85 +13 +13 1022.4 972.6 +13.0 +19.8 0.1
03 26.03 штиль 0 15 км 5/0
[Ac As]
+12.4 +10.7 89 +12 +12 1023.3 973.7
06 26.03 В 2 15 км 5/3 900 м
[Sc Ac As]
+11.0 +9.7 92 +10 +10 1023.3 973.7
09 26.03 В 2 15 км в посл. час дождь 8/3 900 м
[Sc As op]
+10.6 +9.2 91 +9 +9 1023.2 973.3
12 26.03 СВ 3 15 км {дождь} 9/3 900 м
[Sc Ac As]
+12.2 +8.5 78 +11 +11 1025.2 975.2 +9.8 +14.2 0.5
15 26.03 СВ 6 15 км 10/5 900 м
[Sc Ac As]
+15.0 +7.6 61 +13 +14 1025.2 975.4
18 26.03 СВ 7 15 км 8/4 900 м
[Sc Ac As]
+18.6 +8.5 52 +18 +20 1023.4 973.8

 

Местоположение метеостанции Рио-Куарто (Аргентина): широта -33.09 долгота -64.27 высота над уровнем моря 421 м.

В архиве по умолчанию представлена погода в Рио-Куарто за последнюю неделю. Архивные данные за месяц целиком и за предыдущие месяцы, начиная с января 2011 года, Вы можете получить, выбрав интересующий диапазон дат из раскрывающегося списка и нажав кнопку "Ввод!".


*Определитесь, кто Вы:
робот инопланетянин человек

Внимание! Время в таблицах - всемирное. Для получения местного времени необходимо прибавить поправку, которая равна -3 ч.

Смотрите также архив погоды в соседних городах и на ближайших метеорологических станциях:

Погода в Вилья Рейнольдс (Аргентина) (125 км)
Погода в Лабоулайе (Аргентина) (143 км)
Погода в Вилла Долорес (Аргентина) (150 км)
Погода в Пиларе (Аргентина) (163 км)
Погода в Сан-Луисе (Аргентина) (195 км)
Погода в Кордове (Аргентина) (198 км)
Погода в Маркос Хуарес (Аргентина) (203 км)
Погода в Хенераль Пико (Аргентина) (294 км)
Погода в Росарио (Аргентина) (326 км)
Погода в Хунине (Аргентина) (350 км)

Пояснения к столбцам:

Ветер - указаны скорость ветра в м/с - средняя за 10 мин, порывы в срок и между сроками (в фигурных скобках) и направление, откуда дует ветер: С - северный, СВ - северо-восточный, В - восточный, ЮВ - юго-восточный, Ю - южный, ЮЗ - юго-западный, З - западный, СЗ - северо-западный.
Видимость - горизонтальная дальность видимости в метрах или километрах. При видимости от 1 до 10 км при отсутствии осадков обычно наблюдается дымка, при ухудшении видимости до 1 км и менее - туман. В сухую погоду видимость может ухудшаться дымом, пылью или мглою.
Явления - указаны атмосферные явления, наблюдавшиеся в срок или в последний час перед сроком; фигурными скобками обозначены явления, наблюдавшиеся между сроками (за 1-3 часа до срока); квадратными скобками обозначены град или гололедные отложения с указанием их диаметра в мм.
Облачность - указаны через наклонную черту общая и нижняя облачность в баллах и высота нижней границы облаков в метрах; квадратными скобками обозначены формы облаков: Ci - перистые, Cs - перисто-слоистые, Cc - перисто-кучевые, Ac - высококучевые, As - высокослоистые, Sc - слоисто-кучевые, Ns - слоисто-дождевые, Cu - кучевые, Cb - кучево-дождевые. Подробнее классификацию облаков см. в Атласе облаков (PDF).
T - Температура воздуха - температура, измеренная на высоте 2 м над землей.
Td - Температура точки росы - температура, при понижении до которой содержащийся в воздухе водяной пар достигнет насыщения.
f - Относительная влажность воздуха - влажноcть воздуха, измеренная на высоте 2 м над землей.
Te - Эффективная температура - температура, которую ощущает одетый по сезону человек в тени. Характеристика душности погоды. При расчете учитывается влияние влажности воздуха и скорости ветра на теплоощущения человека.
Tes - Эффективная температура на солнце - температура, которую ощущает человек, с поправкой на солнечный нагрев. Характеристика знойности погоды. Зависит от высоты солнца над горизонтом, облачности и скорости ветра. Ночью, в пасмурную погоду, а также при ветре 12 м/с и более поправка равна нулю.
P - Атмосферное давление - приведенное к уровню моря атмосферное давление.
Po - Атмосферное давление - измеренное на уровне метеостанции атмосферное давление.
Tmin - Минимальная температура - минимум температуры воздуха на высоте 2 м над землей.
Tmax - Максимальная температура - максимум температуры воздуха на высоте 2 м над землей.
R - Количество осадков - Количество выпавших осадков за период времени, мм. При наведении курсора мыши на число - период времени, за который выпало указанное количество осадков.
R24 - Количество осадков - Количество выпавших осадков за 24 часа, мм.
S - Снежный покров - Высота снежного покрова, см. При наведении курсора мыши на число - состояние снежного покрова и степень покрытия местности в баллах.